GW4588 Weather Reports


Display with metric or nautical units.
time (UTC)temp
F
wind
direction
speed
MPH
gust
MPH
rain 1hr
in
rain 24hr
in
rain mn
in
humidity
%
barometer
mb
20260506044602 55 106 0.0 2.0 0.00 0.00 0.00 87 1010.3
20260506044058 56 156 0.0 2.0 0.00 0.00 0.00 87 1010.2
20260506043555 56 185 0.0 1.0 0.00 0.00 0.00 86 1010.3
20260506043054 57 304 2.0 6.0 0.00 0.00 0.00 85 1010.3
20260506042553 57 295 2.0 3.0 0.00 0.00 0.00 85 1010.5
20260506042050 57 31 0.0 2.0 0.00 0.00 0.00 86 1010.1
20260506041549 57 9 2.0 5.0 0.00 0.00 0.00 86 1010.3
20260506041045 57 306 0.0 1.0 0.00 0.00 0.00 85 1010.2
20260506040543 57 77 2.0 4.0 0.00 0.00 0.00 85 1010.4
20260506040038 57 258 1.0 3.0 0.00 0.00 0.00 84 1010.4
20260506035536 57 164 2.0 4.0 0.00 0.00 0.00 85 1010.3
20260506035032 58 192 0.0 4.0 0.00 0.00 0.00 84 1010.5
20260506034530 58 267 2.0 5.0 0.00 0.00 0.00 84 1010.2
20260506034026 58 140 0.0 2.0 0.00 0.00 0.00 85 1010.4
20260506033524 58 315 0.0 3.0 0.00 0.00 0.00 84 1010.4
20260506033021 58 83 1.0 3.0 0.00 0.00 0.00 85 1010.2
20260506032518 58 69 0.0 1.0 0.00 0.00 0.00 86 1010.1
20260506032015 58 108 2.0 2.0 0.00 0.00 0.00 86 1010.2
20260506031513 59 145 0.0 2.0 0.00 0.00 0.00 84 1009.8
20260506031009 59 224 0.0 2.0 0.00 0.00 0.00 84 1009.9
20260506030508 59 199 0.0 4.0 0.00 0.00 0.00 84 1009.8
20260506030005 59 317 1.0 2.0 0.00 0.00 0.00 84 1010.3
20260506025501 59 44 0.0 1.0 0.00 0.00 0.00 85 1010.2
20260506024957 59 283 0.0 2.0 0.00 0.00 0.00 84 1010.4
20260506024454 59 309 0.0 2.0 0.00 0.00 0.00 84 1010.3
20260506023950 59 331 0.0 2.0 0.00 0.00 0.00 85 1010.2
20260506023447 59 242 2.0 3.0 0.00 0.00 0.00 85 1010.4
20260506022944 59 227 1.0 2.0 0.00 0.00 0.00 84 1010.3
20260506022442 59 129 0.0 2.0 0.00 0.00 0.00 85 1010.1
20260506021940 60 0 2.0 3.0 0.00 0.00 0.00 84 1010.3
20260506021436 59 75 2.0 2.0 0.00 0.00 0.00 85 1010.4
20260506020933 59 89 2.0 4.0 0.00 0.00 0.00 85 1010.3
20260506020431 59 42 2.0 2.0 0.00 0.00 0.00 86 1010.3
20260506015928 60 320 3.0 4.0 0.00 0.00 0.00 84 1010.3
20260506015426 60 96 3.0 3.0 0.00 0.00 0.00 83 1010.5
20260506014922 60 294 0.0 3.0 0.00 0.00 0.00 81 1010.5
20260506014419 60 81 0.0 3.0 0.00 0.00 0.00 81 1010.2
20260506013916 61 101 0.0 2.0 0.00 0.00 0.00 80 1010.1
20260506013414 61 91 2.0 4.0 0.00 0.00 0.00 79 1010.1
20260506012910 61 16 2.0 3.0 0.00 0.00 0.00 80 1010.2
20260506012407 61 58 2.0 3.0 0.00 0.00 0.00 80 1010.2
20260506011904 61 93 1.0 2.0 0.00 0.00 0.00 78 1010.1
20260506011401 62 21 0.0 2.0 0.00 0.00 0.00 77 1010.2
20260506010858 62 32 0.0 3.0 0.00 0.00 0.00 76 1010.1
20260506010356 61 331 2.0 3.0 0.00 0.00 0.00 76 1010.2
20260506005852 61 66 1.0 3.0 0.00 0.00 0.00 76 1009.9
20260506005350 61 44 0.0 1.0 0.00 0.00 0.00 76 1009.7
20260506004845 61 37 0.0 2.0 0.00 0.00 0.00 76 1009.7
20260506004343 62 261 0.0 1.0 0.00 0.00 0.00 75 1009.8
20260506003839 62 230 0.0 1.0 0.00 0.00 0.00 74 1009.5
20260506003336 62 142 0.0 2.0 0.00 0.00 0.00 74 1009.6
20260506002832 62 133 1.0 2.0 0.00 0.00 0.00 73 1009.5
20260506002329 62 74 2.0 2.0 0.00 0.00 0.00 73 1009.7
20260506001824 62 113 2.0 3.0 0.00 0.00 0.00 72 1009.8
20260506001321 62 118 3.0 3.0 0.00 0.00 0.00 72 1009.4
20260506000818 62 274 3.0 5.0 0.00 0.00 0.00 72 1009.5
20260506000316 62 212 0.0 3.0 0.00 0.00 0.00 72 1009.3
20260505235813 63 242 2.0 4.0 0.00 0.00 0.00 72 1009.2
20260505235310 63 302 3.0 3.0 0.00 0.00 0.00 72 1009.2
20260505234807 63 293 3.0 6.0 0.00 0.00 0.00 72 1009.0
20260505234305 63 299 3.0 7.0 0.00 0.00 0.00 71 1008.9
20260505233802 63 246 2.0 7.0 0.00 0.00 0.00 71 1009.2
20260505233259 63 303 4.0 5.0 0.00 0.00 0.00 71 1009.1
20260505232756 63 284 3.0 10.0 0.00 0.00 0.00 72 1009.0
20260505232254 64 325 2.0 11.0 0.00 0.00 0.00 71 1008.8
20260505231750 64 105 1.0 6.0 0.00 0.00 0.00 71 1008.6
20260505231249 64 285 3.0 7.0 0.00 0.00 0.00 70 1008.4
20260505230747 64 277 5.0 8.0 0.00 0.00 0.00 70 1008.3
20260505230243 65 341 3.0 5.0 0.00 0.00 0.00 68 1008.1
20260505225740 66 266 3.0 12.0 0.00 0.00 0.00 65 1008.5
20260505225237 69 327 5.0 8.0 0.00 0.00 0.00 56 1008.4
20260505224732 72 273 3.0 6.0 0.00 0.00 0.00 40 1007.7
20260505224230 73 275 4.0 12.0 0.00 0.00 0.00 38 1007.3
20260505223727 73 216 7.0 22.0 0.00 0.00 0.00 37 1007.2
20260505223223 73 250 4.0 18.0 0.00 0.00 0.00 37 1006.8
20260505222719 73 286 2.0 7.0 0.00 0.00 0.00 39 1007.2
20260505222216 73 300 5.0 12.0 0.00 0.00 0.00 37 1007.3
20260505221713 73 256 5.0 10.0 0.00 0.00 0.00 37 1007.0
20260505221209 73 228 9.0 11.0 0.00 0.00 0.00 37 1006.7
20260505220707 74 230 3.0 12.0 0.00 0.00 0.00 36 1007.0
20260505220204 74 235 6.0 16.0 0.00 0.00 0.00 36 1006.9
20260505215702 74 233 8.0 10.0 0.00 0.00 0.00 36 1007.0
20260505215200 75 253 4.0 9.0 0.00 0.00 0.00 35 1006.7
20260505214657 75 257 6.0 23.0 0.00 0.00 0.00 34 1007.0
20260505214154 75 249 7.0 22.0 0.00 0.00 0.00 35 1006.8
20260505213652 75 242 5.0 16.0 0.00 0.00 0.00 35 1007.0
20260505213148 77 249 14.0 17.0 0.00 0.00 0.00 34 1006.8
20260505212644 77 251 5.0 29.0 0.00 0.00 0.00 36 1006.8
20260505212142 76 262 3.0 16.0 0.00 0.00 0.00 34 1006.4
20260505211639 76 255 4.0 20.0 0.00 0.00 0.00 35 1006.7
20260505211136 76 222 18.0 24.0 0.00 0.00 0.00 34 1006.5
20260505210633 76 233 11.0 28.0 0.00 0.00 0.00 34 1006.6
20260505210129 77 250 4.0 22.0 0.00 0.00 0.00 35 1006.4
20260505205627 76 208 5.0 18.0 0.00 0.00 0.00 34 1006.1
20260505205125 77 204 5.0 24.0 0.00 0.00 0.00 34 1006.6
20260505204622 77 243 8.0 17.0 0.00 0.00 0.00 33 1006.3
20260505204119 77 187 4.0 16.0 0.00 0.00 0.00 34 1006.3
20260505203615 76 274 5.0 18.0 0.00 0.00 0.00 35 1006.3
20260505203113 76 250 8.0 19.0 0.00 0.00 0.00 35 1006.5
20260505202608 77 259 9.0 27.0 0.00 0.00 0.00 35 1006.5
20260505202105 76 269 4.0 13.0 0.00 0.00 0.00 37 1006.3
20260505201601 76 246 9.0 15.0 0.00 0.00 0.00 37 1006.5
20260505201059 77 172 7.0 13.0 0.00 0.00 0.00 36 1006.4
20260505200556 76 228 7.0 21.0 0.00 0.00 0.00 37 1006.9
20260505200053 76 241 5.0 15.0 0.00 0.00 0.00 38 1006.6
20260505195549 77 145 1.0 14.0 0.00 0.00 0.00 38 1006.5
20260505195047 76 234 5.0 16.0 0.00 0.00 0.00 37 1006.7
20260505194544 77 239 12.0 17.0 0.00 0.00 0.00 38 1006.6
20260505194039 76 223 8.0 19.0 0.00 0.00 0.00 38 1006.6
20260505193537 76 245 8.0 16.0 0.00 0.00 0.00 37 1006.7
20260505193034 76 193 5.0 18.0 0.00 0.00 0.00 37 1006.6
20260505192532 77 194 17.0 20.0 0.00 0.00 0.00 36 1006.6
20260505192030 78 231 9.0 16.0 0.00 0.00 0.00 36 1007.0
20260505191522 77 257 16.0 22.0 0.00 0.00 0.00 36 1006.9
20260505191020 77 221 6.0 14.0 0.00 0.00 0.00 37 1006.8
20260505190514 77 209 4.0 18.0 0.00 0.00 0.00 35 1006.8
20260505190010 77 192 5.0 29.0 0.00 0.00 0.00 36 1007.2
20260505185507 76 236 13.0 19.0 0.00 0.00 0.00 38 1007.0
20260505185003 78 238 9.0 15.0 0.00 0.00 0.00 35 1007.1
20260505184455 77 208 7.0 15.0 0.00 0.00 0.00 35 1006.8
20260505183951 77 248 15.0 20.0 0.00 0.00 0.00 36 1007.1
20260505183449 76 137 2.0 14.0 0.00 0.00 0.00 37 1007.4
20260505182945 76 262 5.0 13.0 0.00 0.00 0.00 38 1007.1
20260505182442 75 212 5.0 20.0 0.00 0.00 0.00 38 1007.2
20260505181938 76 215 7.0 12.0 0.00 0.00 0.00 36 1007.5
20260505181435 75 190 11.0 25.0 0.00 0.00 0.00 38 1007.5
20260505180932 74 220 4.0 31.0 0.00 0.00 0.00 38 1007.6
20260505180428 77 248 8.0 30.0 0.00 0.00 0.00 36 1008.1
20260505175925 76 240 11.0 23.0 0.00 0.00 0.00 37 1007.8
20260505175421 77 226 5.0 29.0 0.00 0.00 0.00 36 1008.1
20260505174918 76 251 9.0 19.0 0.00 0.00 0.00 37 1008.0
20260505174415 77 242 5.0 15.0 0.00 0.00 0.00 36 1007.8
20260505173911 78 234 8.0 11.0 0.00 0.00 0.00 38 1007.8
20260505173408 75 238 12.0 17.0 0.00 0.00 0.00 38 1008.1
20260505172906 76 242 6.0 17.0 0.00 0.00 0.00 36 1007.7
20260505172403 77 214 6.0 24.0 0.00 0.00 0.00 37 1008.3
20260505171902 76 171 10.0 15.0 0.00 0.00 0.00 36 1008.0
20260505171359 77 221 10.0 28.0 0.00 0.00 0.00 37 1008.3
20260505170856 76 233 5.0 26.0 0.00 0.00 0.00 37 1008.1
20260505170353 75 242 5.0 16.0 0.00 0.00 0.00 39 1008.1
20260505165848 76 223 5.0 14.0 0.00 0.00 0.00 39 1008.2
20260505165344 74 246 7.0 21.0 0.00 0.00 0.00 41 1008.3
20260505164840 75 247 3.0 12.0 0.00 0.00 0.00 42 1008.2
20260505164336 75 217 4.0 9.0 0.00 0.00 0.00 41 1008.3
20260505163835 75 267 3.0 14.0 0.00 0.00 0.00 41 1008.2
20260505163333 74 285 8.0 13.0 0.00 0.00 0.00 41 1008.8
20260505162832 74 208 6.0 18.0 0.00 0.00 0.00 42 1008.5
20260505162327 75 229 4.0 12.0 0.00 0.00 0.00 42 1008.5
20260505161825 74 226 3.0 13.0 0.00 0.00 0.00 44 1008.8
20260505161322 74 185 6.0 25.0 0.00 0.00 0.00 40 1009.0
20260505160819 75 230 6.0 10.0 0.00 0.00 0.00 43 1009.0
20260505160317 73 243 8.0 17.0 0.00 0.00 0.00 45 1009.1
20260505153250 72 243 6.0 12.0 0.00 0.00 0.00 48 1009.2
20260505152747 72 222 11.0 13.0 0.00 0.00 0.00 47 1009.4
20260505152243 70 240 5.0 9.0 0.00 0.00 0.00 52 1009.4
20260505151738 71 256 4.0 7.0 0.00 0.00 0.00 52 1009.4
20260505151236 70 250 4.0 7.0 0.00 0.00 0.00 54 1009.6
20260505150732 69 220 4.0 9.0 0.00 0.00 0.00 55 1009.6
20260505150229 69 236 4.0 7.0 0.00 0.00 0.00 58 1009.9
20260505140154 64 146 3.0 6.0 0.00 0.00 0.00 61 1009.8
20260505130118 56 240 3.0 7.0 0.00 0.00 0.00 75 1010.1
20260505124607 55 347 0.0 5.0 0.00 0.00 0.00 75 1010.1
20260505124103 55 205 2.0 2.0 0.00 0.00 0.00 75 1009.8
20260505123600 54 157 1.0 5.0 0.00 0.00 0.00 75 1009.8
20260505123057 54 309 0.0 2.0 0.00 0.00 0.00 74 1009.7
20260505122553 54 127 2.0 3.0 0.00 0.00 0.00 76 1009.8
20260505122050 54 57 2.0 3.0 0.00 0.00 0.00 75 1009.8
20260505121546 53 42 2.0 4.0 0.00 0.00 0.00 77 1009.8
20260505121043 52 197 2.0 3.0 0.00 0.00 0.00 80 1009.8
20260505120540 53 125 1.0 3.0 0.00 0.00 0.00 79 1010.2
20260505120035 52 243 1.0 2.0 0.00 0.00 0.00 80 1009.9
20260505115530 51 186 0.0 2.0 0.00 0.00 0.00 82 1010.1
20260505115028 51 141 0.0 2.0 0.00 0.00 0.00 82 1010.1
20260505114525 50 78 0.0 2.0 0.00 0.00 0.00 84 1009.9
20260505114021 49 66 0.0 3.0 0.00 0.00 0.00 85 1009.9
20260505113518 50 123 1.0 2.0 0.00 0.00 0.00 85 1009.9
20260505113015 50 142 3.0 3.0 0.00 0.00 0.00 84 1009.7
20260505112511 48 91 0.0 3.0 0.00 0.00 0.00 87 1010.1
20260505112009 48 117 1.0 3.0 0.00 0.00 0.00 89 1009.7
20260505111508 47 171 1.0 2.0 0.00 0.00 0.00 89 1009.6
20260505111004 46 87 0.0 2.0 0.00 0.00 0.00 90 1009.4
20260505110500 46 135 2.0 4.0 0.00 0.00 0.00 90 1009.6
20260505101932 45 186 0.0 2.0 0.00 0.00 0.00 93 1009.3
20260505101426 44 226 1.0 3.0 0.00 0.00 0.00 94 1009.2
20260505100922 44 82 0.0 2.0 0.00 0.00 0.00 93 1009.1
20260505100419 44 92 2.0 4.0 0.00 0.00 0.00 93 1008.9
20260505095915 44 86 1.0 3.0 0.00 0.00 0.00 94 1008.9
20260505095412 43 49 1.0 3.0 0.00 0.00 0.00 93 1008.9
20260505094908 44 39 0.0 2.0 0.00 0.00 0.00 93 1009.0
20260505094406 44 117 2.0 2.0 0.00 0.00 0.00 93 1009.1
20260505093901 44 81 2.0 3.0 0.00 0.00 0.00 93 1009.0
20260505093359 44 41 2.0 3.0 0.00 0.00 0.00 92 1008.9
20260505092856 44 65 2.0 3.0 0.00 0.00 0.00 92 1009.1
20260505092354 45 37 2.0 3.0 0.00 0.00 0.00 91 1008.9
20260505091850 45 113 1.0 3.0 0.00 0.00 0.00 92 1009.2
20260505091349 45 274 0.0 3.0 0.00 0.00 0.00 90 1009.2
20260505090846 46 100 2.0 3.0 0.00 0.00 0.00 88 1009.0
20260505090344 47 149 2.0 3.0 0.00 0.00 0.00 86 1009.2
20260505085841 46 101 4.0 5.0 0.00 0.00 0.00 85 1009.2
20260505085339 46 53 2.0 3.0 0.00 0.00 0.00 87 1009.1
20260505084837 46 107 2.0 4.0 0.00 0.00 0.00 87 1009.1
20260505084335 46 47 0.0 4.0 0.00 0.00 0.00 87 1009.2
20260505083832 46 43 1.0 2.0 0.00 0.00 0.00 87 1009.4
20260505083329 46 72 2.0 2.0 0.00 0.00 0.00 87 1009.6
20260505082826 46 185 0.0 3.0 0.00 0.00 0.00 86 1009.4
20260505082322 46 72 3.0 3.0 0.00 0.00 0.00 86 1009.6
20260505081819 46 38 1.0 4.0 0.00 0.00 0.00 86 1009.5
20260505081315 46 94 1.0 3.0 0.00 0.00 0.00 86 1009.5
20260505080812 46 80 2.0 3.0 0.00 0.00 0.00 86 1009.6
20260505080308 46 98 2.0 3.0 0.00 0.00 0.00 86 1009.5
20260505075803 46 53 2.0 4.0 0.00 0.00 0.00 86 1009.4
20260505075301 46 21 3.0 4.0 0.00 0.00 0.00 86 1009.4
20260505074758 46 11 3.0 4.0 0.00 0.00 0.00 86 1009.4
20260505074255 46 30 4.0 4.0 0.00 0.00 0.00 86 1009.3
20260505073753 46 21 3.0 4.0 0.00 0.00 0.00 86 1009.4
20260505073250 46 27 3.0 3.0 0.00 0.00 0.00 85 1009.5
20260505072747 46 97 1.0 3.0 0.00 0.00 0.00 85 1009.6
20260505072243 46 63 2.0 3.0 0.00 0.00 0.00 85 1009.2
20260505071739 46 0 1.0 4.0 0.00 0.00 0.00 85 1009.6
20260505071236 46 40 2.0 3.0 0.00 0.00 0.00 85 1009.5
20260505070734 46 29 2.0 3.0 0.00 0.00 0.00 87 1009.4
20260505070230 45 212 0.0 3.0 0.00 0.00 0.00 87 1009.5
20260505065725 45 346 3.0 4.0 0.00 0.00 0.00 88 1009.4
20260505065222 44 40 2.0 3.0 0.00 0.00 0.00 90 1009.6
20260505064719 44 8 2.0 3.0 0.00 0.00 0.00 91 1009.6
20260505064217 44 61 4.0 5.0 0.00 0.00 0.00 91 1009.6
20260505063715 44 95 0.0 2.0 0.00 0.00 0.00 91 1009.6
20260505063210 44 76 0.0 3.0 0.00 0.00 0.00 90 1009.6
20260505062707 44 26 2.0 3.0 0.00 0.00 0.00 89 1009.9
20260505062205 44 26 1.0 2.0 0.00 0.00 0.00 89 1009.5
20260505061701 44 41 0.0 3.0 0.00 0.00 0.00 89 1009.6
20260505061200 44 27 0.0 4.0 0.00 0.00 0.00 89 1009.8
20260505060657 43 33 3.0 3.0 0.00 0.00 0.00 90 1009.7
20260505060153 43 54 0.0 4.0 0.00 0.00 0.00 90 1009.8
20260505055648 43 44 2.0 3.0 0.00 0.00 0.00 90 1010.1
20260505055145 44 52 1.0 3.0 0.00 0.00 0.00 89 1009.8
20260505054643 44 36 2.0 3.0 0.00 0.00 0.00 89 1009.9
20260505054141 44 138 0.0 2.0 0.00 0.00 0.00 88 1010.1
20260505053638 44 44 0.0 2.0 0.00 0.00 0.00 88 1009.9
20260505053134 45 75 1.0 3.0 0.00 0.00 0.00 87 1010.1
20260505052632 45 53 2.0 3.0 0.00 0.00 0.00 86 1009.9
20260505052129 45 3 0.0 4.0 0.00 0.00 0.00 86 1009.8
20260505051626 46 63 1.0 3.0 0.00 0.00 0.00 85 1010.2
20260505051124 46 44 3.0 4.0 0.00 0.00 0.00 85 1010.2
20260505050621 46 114 0.0 3.0 0.00 0.00 0.00 85 1010.2
20260505050120 46 316 1.0 2.0 0.00 0.00 0.00 84 1010.3